Weather History for Grand Junction, CO

Change the Weather History Date:

Sunday, October 24, 2010

  Actual Average Record
Temperature  
Mean Temperature 53 °F 50 °F  
Max Temperature 60 °F 63 °F 77 °F (1992)
Min Temperature 46 °F 37 °F 18 °F (1975)
Degree Days  
Heating Degree Days 12 15  
Month to date heating degree days 146 254  
Since 1 July heating degree days 158 328  
Cooling Degree Days 0 0  
Month to date cooling degree days 12 1  
Year to date cooling degree days 1277 1123  
Growing Degree Days 2 (Base 50)    
Moisture  
Dew Point 45 °F    
Average Humidity 72    
Maximum Humidity 86    
Minimum Humidity 57    
Precipitation  
Precipitation 0.03 in 0.03 in 0.39 in (1921)
Month to date precipitation 1.15 0.84  
Year to date precipitation 7.33 7.88  
Snow  
Snow 0.00 in 0.00 in 3.40 in (1975)
Month to date snowfall 0.0 0.2  
Since 1 July snowfall 0.0 0.2  
Since 1 September snowfall 0.0 0.2  
Snow Depth 0.00 in    
Sea Level Pressure  
Sea Level Pressure 29.85 in    
Wind  
Wind Speed 9 mph (SE)    
Max Wind Speed 26 mph    
Max Gust Speed 32 mph    
Visibility 10 miles    
Events Rain    
T = Trace of Precipitation, MM = Missing Value Source: NWS Daily Summary

Daily Weather History Graph

Daily Weather History Graph

Search for Another Location

Airport:

Trip Planner

Search our weather history database for the weather conditions in past years. The results will help you decide how hot, cold, wet, or windy it might be!

Date:

Astronomy

Oct. 24, 2010 Rise Set
Actual Time 7:33 AM MDT 6:22 PM MDT
Civil Twilight 7:05 AM MDT 6:50 PM MDT
Nautical Twilight 6:34 AM MDT 7:21 PM MDT
Astronomical Twilight 6:03 AM MDT 7:52 PM MDT
Moon 7:08 PM MDT (10/24) 9:16 AM MDT (10/24)
Length of Visible Light 11h 44m
Length of Day
10h 49m
Full, 97% of the Moon is Illuminated
Oct 24
Full
Oct 30
Last Quarter
Nov 5
New
Nov 13
First Quarter
Nov 21
Full

Hourly Weather History & Observations

Time (MDT) Temp. Windchill Dew Point Humidity Pressure Visibility Wind Dir Wind Speed Gust Speed Precip Events Conditions
12:53 AM 48.9 °F - 45.0 °F 86% 29.96 in 10.0 mi Calm Calm - N/A   Overcast
1:53 AM 48.9 °F - 45.0 °F 86% 29.96 in 10.0 mi ESE 5.8 mph - N/A   Overcast
2:53 AM 48.0 °F - 45.0 °F 89% 29.95 in 10.0 mi East 6.9 mph - N/A   Mostly Cloudy
3:53 AM 48.0 °F - 44.1 °F 86% 29.94 in 10.0 mi East 8.1 mph - N/A   Overcast
4:53 AM 46.0 °F 41.9 °F 43.0 °F 89% 29.94 in 10.0 mi East 8.1 mph - N/A   Scattered Clouds
5:53 AM 46.0 °F 41.9 °F 42.1 °F 86% 29.94 in 10.0 mi ESE 8.1 mph - N/A   Scattered Clouds
6:53 AM 46.0 °F 42.5 °F 42.1 °F 86% 29.97 in 10.0 mi ESE 6.9 mph - N/A   Overcast
7:53 AM 46.9 °F - 43.0 °F 86% 29.97 in 10.0 mi ESE 10.4 mph - N/A   Overcast
8:53 AM 48.0 °F - 43.0 °F 83% 29.99 in 10.0 mi SSE 10.4 mph - N/A   Overcast
9:53 AM 50.0 °F - 43.0 °F 77% 29.97 in 10.0 mi SE 13.8 mph - N/A   Overcast
10:53 AM 53.1 °F - 45.0 °F 74% 29.94 in 10.0 mi ESE 9.2 mph - N/A   Overcast
11:53 AM 55.0 °F - 44.1 °F 67% 29.91 in 10.0 mi South 6.9 mph - N/A   Overcast
12:53 PM 59.0 °F - 44.1 °F 58% 29.88 in 10.0 mi SSW 8.1 mph - N/A   Overcast
1:53 PM 59.0 °F - 46.9 °F 64% 29.83 in 10.0 mi West 9.2 mph - N/A   Mostly Cloudy
2:53 PM 57.9 °F - 45.0 °F 62% 29.81 in 10.0 mi NNW 3.5 mph - N/A   Mostly Cloudy
3:53 PM 59.0 °F - 45.0 °F 60% 29.78 in 10.0 mi NW 4.6 mph - N/A   Mostly Cloudy
4:53 PM 57.9 °F - 45.0 °F 62% 29.78 in 10.0 mi NW 4.6 mph - N/A   Mostly Cloudy
5:53 PM 57.9 °F - 48.0 °F 70% 29.77 in 10.0 mi West 4.6 mph - N/A   Mostly Cloudy
6:53 PM 55.0 °F - 48.9 °F 80% 29.77 in 7.0 mi Calm Calm - 0.01 in Rain Light Rain
7:53 PM 54.0 °F - 48.9 °F 83% 29.74 in 10.0 mi East 5.8 mph - 0.02 in Rain Light Rain
8:53 PM 55.0 °F - 46.0 °F 72% 29.69 in 10.0 mi SE 13.8 mph - 0.00 in Rain Light Rain
9:53 PM 55.9 °F - 44.1 °F 64% 29.66 in 10.0 mi SSE 15.0 mph - 0.00 in   Mostly Cloudy
10:53 PM 55.9 °F - 43.0 °F 62% 29.60 in 10.0 mi SSE 18.4 mph 24.2 mph N/A   Scattered Clouds
11:53 PM 55.4 °F - 42.8 °F 63% 29.69 in 10.0 mi SSE 20.7 mph 27.6 mph N/A   Scattered Clouds